Location: Regensburg
(48.4565°N, 10.3217°E)
Time: 01:35:02
(UTC+02:00)

ISS - Visible Passes

Search period start: 22 October 2019 00:00
Search period end: 31 October 2019 23:00
Orbit: 411 x 421 km, 51.6° (Epoch: 21 October)

Date Brightness Start Highest point End Pass type
(mag) Time Alt. Az. Time Alt. Az. Time Alt. Az.
24 Oct -0.8 06:49:44 10° S 06:51:48 15° SE 06:53:52 10° E visible
26 Oct -2.1 06:47:56 10° SSW 06:51:01 33° SE 06:54:05 10° E visible
27 Oct -1.5 05:00:46 15° S 05:02:32 22° SE 05:05:12 10° E visible
28 Oct -0.9 04:14:37 14° SE 04:14:37 14° SE 04:16:00 10° ESE visible
28 Oct -3.5 05:47:32 14° SW 05:50:20 69° SSE 05:53:41 10° ENE visible
29 Oct -3.0 05:01:15 42° S 05:01:45 46° SSE 05:05:00 10° ENE visible
30 Oct -1.1 04:14:49 20° E 04:14:49 20° E 04:16:13 10° E visible
30 Oct -3.7 05:47:44 22° W 05:49:46 69° NNW 05:53:08 10° ENE visible
31 Oct -3.8 05:01:13 82° ENE 05:01:13 82° ENE 05:04:28 10° ENE visible
